Location: A�t �Alizem
(31.2076°N, 8.7872°W)
Time: 17:15:09
(UTC+00:00)

deb Explorer IX - Pass Details

Date: 28 June 2021
Orbit: 541 x 1234 km, 38.9° (Epoch: 03 August)

Event Time Altitude Azimuth Distance (km) Brightness Sun altitude
Exits shadow 02:05:12 46° 350° (N) 1,038 ? -31.7°
Maximum altitude 02:05:58 50° 18° (NNE) 1,009 ? -31.6°
Drops below altitude 10° 02:11:59 10° 93° (E) 2,624 ? -31.1°
Sets 02:14:56 0° 98° (E) 3,689 ? -30.8°
